Regional Weather Roundup
Issued by NWS

Home | Current Version | Previous Version | Graphics & Text | Print | Product List | Glossary Off
Versions: 1 2 3 4 5 6 7 8 9 10 11 12 13 14 15 16 17 18 19 20 21 22 23 24 25 26 27 28 29 30 31 32 33 34 35 36 37 38 39 40 41 42 43 44 45 46 47 48 49 50

382
ASUS43 KTOP 221408
RWRKS

WEATHER ROUNDUP FOR KANSAS
NATIONAL WEATHER SERVICE GOODLAND KS
900 AM CDT MON MAY 22 2017

NOTE:  "FAIR" INDICATES FEW OR NO CLOUDS BELOW 12,000 FEET WITH NO
SIGNIFICANT WEATHER AND/OR OBSTRUCTIONS TO VISIBILITY.

KSZ001>006-013>018-027>032-041>047-221500-
NORTHWEST KANSAS

CITY           SKY/WX    TMP DP  RH WIND       PRES   REMARKS
GOODLAND       CLOUDY    51  49  92 W7        30.10F
HAYS           CLOUDY    56  53  90 NW3       30.07R
HILL CITY      CLOUDY    58  54  86 W5        30.06F
RUSSELL        LGT RAIN  57  53  86 S5        30.04F
$$

KSZ061>065-074>080-084>089-221500-
SOUTHWEST KANSAS

CITY           SKY/WX    TMP DP  RH WIND       PRES   REMARKS
DODGE CITY     CLOUDY    58  53  84 SW10      30.10R
ELKHART          N/A     55  43  64 NW7         N/A
GARDEN CITY    LGT RAIN  54  51  90 NW6       30.10R
LIBERAL        CLOUDY    56  52  86 W7        30.13S
PRATT          CLOUDY    58  50  76 SW14      30.11R
$$

KSZ066>073-081>083-090>101-221500-
SOUTHEAST KANSAS

CITY           SKY/WX    TMP DP  RH WIND       PRES   REMARKS
CHANUTE        CLOUDY    66  55  67 SW12      30.11S
COFFEYVILLE    SUNNY     65  57  75 S9        30.11F
HUTCHINSON     CLOUDY    62  53  72 SW6       30.08S
MEDICINE LODGE   N/A     61  51  70 SW12      30.10R
NEWTON         CLOUDY    61  53  75 SW12      30.09S
PARSONS        SUNNY     65  54  67 S7        30.12F
WICHITA INTL   CLOUDY    61  55  81 S8        30.09S
WICHITA JABRA  CLOUDY    62  52  69 SW10      30.09S
WICHITA MCCONL CLOUDY    61  52  72 SW10      30.10R
WINFIELD       CLOUDY    65  54  67 SW8       30.12S
$$

KSZ007>012-019>026-033>040-048>060-102>105-221500-
NORTHEAST KANSAS

CITY           SKY/WX    TMP DP  RH WIND       PRES   REMARKS
CONCORDIA      CLOUDY    61  55  81 W9        30.03S
EMPORIA        CLOUDY    61  57  87 SW5       30.09R
LAWRENCE       PTSUNNY   64  55  72 S7        30.07F
MANHATTAN      RAIN      57  55  93 SW9       30.06R FOG
MARYSVILLE     CLOUDY    61  55  82 SW7       30.02S
OLATHE IND     CLOUDY    63  54  72 SW10      30.08F
OLATHE EXE     MOSUNNY   64  55  72 SW7       30.07F
SALINA         CLOUDY    61  54  77 CALM      30.05F
TOPEKA BILLARD CLOUDY    62  54  74 S8        30.06S
TOPEKA FORBES  CLOUDY    60  55  83 S7        30.07R
$$




USA.gov is the U.S. government's official web portal to all federal, state and local government web resources and services.